Weather in Gladstone

Australia     23°50′47″S   151°15′18″E
temp.,
°C
wind,
m/s
gust,
m/s
humid.,
%
clouds,
%
prec.,
mm/h
press.,
hPa
HPBL,
m
19 april, mon
mon1901:00+19sse46850 0.0 1016284
04:00+19sse57882 0.0 1015328
07:00+19sse47850 0.0 1017378
10:00+23se67680 0.0 1018767
13:00+24e66649 0.1 1015991
16:00+24e77610 0.1 1015937
19:00+23e57590 0.0 1016673
22:00+22e45620 0.0 1017731
20 april, tue
tue2001:00+21e44660 0.0 1016618
04:00+21se34700 0.0 1016571
07:00+20sse34750 0.0 1018375
10:00+23ese45660 0.0 1019666
13:00+24e44630 0.0 1016797
16:00+24ene44590 0.0 1015731
19:00+22ne45650 0.0 1017492
22:00+22ne34705 0.0 1017531
21 april, wed
wed2101:00+21ne22720 0.0 1016524
04:00+21ne23733 0.0 1015473
07:00+21nnw126975 0.0 1016449
10:00+25nne23554 0.0 1016903
13:00+26ne545638 0.0 1014940
16:00+25nne566397 0.0 1013499
19:00+23n34740 0.0 1015264
22:00+22nnw23784 0.0 1015259
22 april, thu
thu2201:00+21w12821 0.0 101484
04:00+21sw2284100 0.0 101366
07:00+22wsw118086 0.0 101477
10:00+25n1266100 0.0 1015469
13:00+27nne546181 0.0 1012889
16:00+25n5674100 0.0 1012497
19:00+24n5874100 0.1 1013447
22:00+23nw3573100 0.1 1014301
23 april, fri
fri2301:00+23wsw2274100 0.0 1014117
04:00+22ssw2272100 0.0 101385
07:00+21s4589100 0.9 1015332
10:00+18s4592100 4.6 1017233
13:00+18sse5789100 2.9 1015386
16:00+17sse5891100 6.0 1014396
19:00+18sse6889100 3.3 1017453
22:00+18sse5987100 4.2 1018456